Flag for France Weather past 2 weeks in Boulogne-Billancourt, France

Now
41 °F

Passing clouds.


Feels Like: 36 °F
Forecast: 38 / 45 °F
Wind: 8 mph from West

Location: Paris-Orly

Current Time: Jan 26, 2015 at 5:44:44 AM

Latest Report: Jan 26, 2015 at 5:00 AM


Visibility: 2 mi

Pressure: 30.33 "Hg

Humidity: 93%

Dew point: 39 °F

Location of Boulogne-BillancourtLocation

Historic Weather in Boulogne-Billancourt — Graph

°F

Boulogne-Billancourt temperature yesterday

Maximum temperature yesterday: 45 °F (at 3:30 PM)
Minimum temperature yesterday: 27 °F (at 7:00 AM)
Average temperature yesterday: 36 °F

Past Weeks' High & Low Weather Summary

 TemperatureHumidityPressure
High52 °F (Jan 15, 11:30 AM)100% (Jan 17, 4:30 AM)30.51 "Hg (Jan 17, 4:30 AM)
Low27 °F (Jan 25, 7:00 AM)57% (Jan 11, 5:00 PM)29.53 "Hg (Jan 15, 12:30 PM)
Average39 °F83%30.02 "Hg
* Reported Jan 11 4:00 AM — Jan 26 4:30 AM, Boulogne-Billancourt, Weather by CustomWeather, © 2014

Note: Actual official high and low records may vary slightly from our data, if they occured in-between our weather recording intervals... More about our weather records

Advertising

Boulogne-Billancourt weather history for previous 24 hours

 ConditionsComfort  
Time TempWeatherWind HumidityBarometerVisibility
4:30 AM
Jan 26
41 °FPassing clouds.7 mph93%30.36 "Hg4 mi
4:00 AM41 °FPartly cloudy.7 mph87%30.36 "Hg4 mi
3:30 AM41 °FPassing clouds.8 mph87%30.36 "Hg4 mi
3:00 AM41 °FPassing clouds.10 mph81%30.39 "HgN/A
2:30 AM41 °FPassing clouds.8 mph76%30.39 "HgN/A
2:00 AM41 °FPassing clouds.9 mph76%30.39 "HgN/A
1:30 AM41 °FPassing clouds.6 mph76%30.39 "HgN/A
1:00 AM41 °FPassing clouds.5 mph76%30.39 "HgN/A
12:30 AM41 °FPassing clouds.2 mph76%30.42 "HgN/A
12:00 AM41 °FPassing clouds.2 mph81%30.42 "HgN/A
11:30 PM
Jan 25
41 °FPassing clouds.3 mph81%30.42 "HgN/A
11:00 PM41 °FPassing clouds.3 mph81%30.42 "HgN/A
10:30 PM39 °FPassing clouds.2 mph87%30.45 "HgN/A
10:00 PM41 °FPassing clouds.3 mph81%30.45 "HgN/A
9:30 PM41 °FPassing clouds.3 mph81%30.45 "HgN/A
9:00 PM41 °FPassing clouds.3 mph76%30.45 "HgN/A
8:30 PM41 °FClear.3 mph81%30.45 "Hg10 mi
8:00 PM39 °FClear.5 mph87%30.45 "Hg10 mi
7:30 PM39 °FClear.2 mph81%30.45 "Hg10 mi
7:00 PM41 °FClear.3 mph76%30.45 "Hg10 mi
6:30 PM41 °FClear.3 mph76%30.48 "Hg10 mi
6:00 PM41 °FClear.2 mph76%30.45 "Hg10 mi
5:30 PM43 °FPartly sunny.5 mph71%30.45 "HgN/A
5:00 PM43 °FPartly sunny.5 mph71%30.45 "HgN/A
4:30 PM45 °FPassing clouds.6 mph66%30.45 "HgN/A
4:00 PM45 °FPassing clouds.7 mph66%30.45 "HgN/A
3:30 PM45 °FSunny.3 mph66%30.45 "Hg10 mi
3:00 PM43 °FPassing clouds.6 mph76%30.45 "HgN/A
2:30 PM43 °FSunny.6 mph71%30.45 "Hg10 mi
2:00 PM43 °FPassing clouds.6 mph71%30.48 "HgN/A
1:30 PM41 °FSunny.5 mph76%30.48 "Hg10 mi
1:00 PM41 °FPassing clouds.5 mph81%30.48 "HgN/A
12:30 PM39 °FSunny.3 mph87%30.51 "Hg10 mi
12:00 PM37 °FSunny.3 mph87%30.51 "Hg10 mi
11:30 AM37 °FSunny.3 mph87%30.51 "Hg10 mi
11:00 AM36 °FSunny.3 mph93%30.51 "Hg10 mi
10:30 AM34 °FSunny.3 mph93%30.51 "Hg10 mi
10:00 AM32 °FSunny.5 mph93%30.51 "Hg10 mi
9:30 AM32 °FSunny.7 mph93%30.51 "Hg10 mi
9:00 AM32 °FPartly sunny.5 mph93%30.51 "HgN/A
8:30 AM32 °FBroken clouds.2 mph93%30.51 "HgN/A
8:00 AM32 °FPartly cloudy.3 mph93%30.51 "HgN/A
7:30 AM30 °FPartly cloudy.6 mph93%30.51 "HgN/A
7:00 AM27 °FPassing clouds.3 mph93%30.51 "HgN/A
6:30 AM28 °FClear.5 mph93%30.51 "Hg10 mi
6:00 AM28 °FClear.6 mph93%30.48 "Hg10 mi
5:30 AM28 °FClear.6 mph93%30.48 "Hg10 mi
5:00 AM28 °FClear.5 mph93%30.48 "Hg10 mi
Weather by CustomWeather, © 2014

See weather overviewHow to use our weather pages